Location: Atbuku
(36.4936°N, 30.4362°E)
Time: 01:08:06
(UTC+00:00)

IRS-P3 - Pass Details

Date: 11 December 2025
Orbit: 810 x 816 km, 99.0° (Epoch: 14 January)

Event Time Altitude Azimuth Distance (km) Brightness Sun altitude
Rises 15:56:55 0° 164° (SSE) 3,323 7.3 -14.5°
Reaches altitude 10° 15:59:15 10° 164° (SSE) 2,394 6.6 -14.9°
Maximum altitude 16:04:33 89° 79° (ENE) 818 4.1 -15.9°
Drops below altitude 10° 16:09:54 10° 347° (NNW) 2,406 6.5 -17.0°
Sets 16:12:14 0° 347° (NNW) 3,340 7.3 -17.4°
